TimeEST,TemperatureF,Dew PointF,Humidity,Sea Level PressureIn,VisibilityMPH,Wind Direction,Wind SpeedMPH,Gust SpeedMPH,PrecipitationIn,Events,Conditions,WindDirDegrees,DateUTC
12:04 AM,53.6,53.6,100,29.93,9.0,SSE,5.8,-,N/A,Rain,Light Rain,150,2014-01-14 05:04:00
12:14 AM,53.6,53.6,100,29.93,7.0,SSE,5.8,-,N/A,Rain,Light Rain,160,2014-01-14 05:14:00
12:16 AM,53.6,53.6,100,29.93,7.0,SSE,5.8,-,N/A,Rain,Light Rain,160,2014-01-14 05:16:00
12:30 AM,53.6,53.6,100,29.91,10.0,SSE,4.6,-,N/A,Rain,Light Rain,150,2014-01-14 05:30:00
12:42 AM,53.6,53.6,100,29.89,9.0,SSE,3.5,-,N/A,Rain,Light Rain,150,2014-01-14 05:42:00
12:43 AM,53.6,53.6,100,29.89,9.0,SSE,4.6,-,N/A,Rain,Light Rain,150,2014-01-14 05:43:00
12:51 AM,53.6,53.6,100,29.90,10.0,South,5.8,-,N/A,Rain,Light Rain,170,2014-01-14 05:51:00
12:54 AM,53.6,53.6,100,29.90,10.0,South,4.6,-,N/A,,Overcast,170,2014-01-14 05:54:00
12:56 AM,53.6,53.6,100,29.90,10.0,South,5.8,-,N/A,Rain,Light Rain,170,2014-01-14 05:56:00
12:58 AM,53.6,53.6,100,29.91,9.0,South,5.8,-,0.06,Rain,Light Rain,170,2014-01-14 05:58:00
1:04 AM,53.6,53.6,100,29.90,7.0,South,8.1,-,N/A,Rain,Light Rain,170,2014-01-14 06:04:00
1:08 AM,53.6,53.6,100,29.89,7.0,SSE,5.8,-,N/A,Rain,Light Rain,160,2014-01-14 06:08:00
1:14 AM,53.6,53.6,100,29.89,10.0,South,5.8,-,N/A,Rain,Light Rain,170,2014-01-14 06:14:00
1:58 AM,55.0,55.0,100,29.89,10.0,South,4.6,-,0.04,Rain,Light Rain,180,2014-01-14 06:58:00
1:59 AM,55.4,55.4,100,29.88,10.0,South,4.6,-,N/A,,Scattered Clouds,180,2014-01-14 06:59:00
2:04 AM,55.4,55.4,100,29.88,10.0,South,5.8,-,N/A,Rain,Light Rain,180,2014-01-14 07:04:00
2:16 AM,55.4,55.4,100,29.88,10.0,South,4.6,-,N/A,,Scattered Clouds,190,2014-01-14 07:16:00
2:31 AM,55.4,55.4,100,29.88,10.0,South,3.5,-,N/A,,Mostly Cloudy,190,2014-01-14 07:31:00
2:40 AM,55.4,55.4,100,29.87,10.0,South,4.6,-,N/A,Rain,Light Rain,180,2014-01-14 07:40:00
2:46 AM,55.4,55.4,100,29.87,10.0,South,4.6,-,N/A,Rain,Light Rain,180,2014-01-14 07:46:00
2:49 AM,55.4,55.4,100,29.87,10.0,South,4.6,-,N/A,,Overcast,190,2014-01-14 07:49:00
2:58 AM,55.6,55.6,100,29.88,10.0,South,5.8,-,0.00,,Overcast,180,2014-01-14 07:58:00
3:04 AM,55.4,55.4,100,29.86,10.0,South,5.8,-,N/A,,Overcast,170,2014-01-14 08:04:00
3:20 AM,55.4,55.4,100,29.86,10.0,South,8.1,-,N/A,Rain,Light Rain,170,2014-01-14 08:20:00
3:34 AM,57.2,57.2,100,29.85,10.0,South,12.7,-,N/A,,Overcast,170,2014-01-14 08:34:00
3:40 AM,57.2,57.2,100,29.85,10.0,South,11.5,-,N/A,Rain,Light Rain,180,2014-01-14 08:40:00
3:58 AM,58.3,58.3,100,29.86,10.0,South,11.5,-,0.00,Rain,Light Rain,180,2014-01-14 08:58:00
4:00 AM,59.0,59.0,100,29.85,10.0,South,12.7,-,N/A,Rain,Light Rain,170,2014-01-14 09:00:00
4:14 AM,59.0,59.0,100,29.85,10.0,South,10.4,-,N/A,,Overcast,190,2014-01-14 09:14:00
4:20 AM,59.0,59.0,100,29.85,10.0,South,8.1,-,N/A,Rain,Light Rain,190,2014-01-14 09:20:00
4:58 AM,59.5,59.5,100,29.83,10.0,SSE,5.8,-,0.01,Rain,Light Rain,160,2014-01-14 09:58:00
5:15 AM,59.0,59.0,100,29.88,10.0,SW,6.9,-,N/A,,Overcast,230,2014-01-14 10:15:00
5:45 AM,60.8,60.8,100,29.87,10.0,SSW,10.4,-,N/A,,Overcast,200,2014-01-14 10:45:00
5:47 AM,60.8,60.8,100,29.87,10.0,SSW,10.4,-,N/A,Rain,Light Rain,200,2014-01-14 10:47:00
5:58 AM,60.3,60.1,99,29.86,10.0,South,13.8,-,0.00,Rain,Light Rain,190,2014-01-14 10:58:00
6:03 AM,60.8,60.8,100,29.88,10.0,SSW,12.7,-,N/A,,Overcast,210,2014-01-14 11:03:00
6:58 AM,60.3,60.3,100,29.87,10.0,South,9.2,-,0.00,,Overcast,180,2014-01-14 11:58:00
7:26 AM,60.8,60.8,100,29.88,10.0,SSW,10.4,-,N/A,Rain,Light Rain,210,2014-01-14 12:26:00
7:28 AM,60.8,60.8,100,29.88,10.0,SSW,8.1,-,N/A,Rain,Light Rain,210,2014-01-14 12:28:00
7:50 AM,60.8,60.8,100,29.88,10.0,SSW,10.4,-,N/A,,Overcast,200,2014-01-14 12:50:00
7:53 AM,60.8,60.8,100,29.87,10.0,SSW,9.2,-,N/A,Rain,Light Rain,200,2014-01-14 12:53:00
7:54 AM,60.8,60.8,100,29.87,10.0,SSW,10.4,-,N/A,,Overcast,200,2014-01-14 12:54:00
7:55 AM,60.8,60.8,100,29.87,10.0,SSW,10.4,-,N/A,Rain,Light Rain,200,2014-01-14 12:55:00
7:58 AM,60.4,60.4,100,29.88,9.0,SSW,10.4,-,0.01,Rain,Light Rain,200,2014-01-14 12:58:00
8:09 AM,60.8,60.8,100,29.88,10.0,SSW,8.1,-,N/A,,Overcast,210,2014-01-14 13:09:00
8:33 AM,60.8,60.8,100,29.88,9.0,SSW,10.4,-,N/A,Rain,Light Rain,200,2014-01-14 13:33:00
8:37 AM,60.8,60.8,100,29.88,3.0,SSW,8.1,-,N/A,Rain,Light Rain,210,2014-01-14 13:37:00
8:39 AM,60.8,60.8,100,29.88,2.0,SSW,9.2,-,N/A,Rain,Rain,210,2014-01-14 13:39:00
8:41 AM,60.8,60.8,100,29.88,1.8,SSW,9.2,-,N/A,Rain,Rain,210,2014-01-14 13:41:00
8:45 AM,60.8,60.8,100,29.89,2.0,SSW,9.2,-,N/A,Rain,Light Rain,210,2014-01-14 13:45:00
8:47 AM,60.8,60.8,100,29.89,3.0,SSW,10.4,-,N/A,Rain,Light Rain,210,2014-01-14 13:47:00
8:58 AM,61.0,61.0,100,29.91,8.0,SSW,11.5,-,0.08,Rain,Light Rain,210,2014-01-14 13:58:00
9:08 AM,60.8,60.8,100,29.92,4.0,West,11.5,-,N/A,Rain,Light Rain,260,2014-01-14 14:08:00
9:12 AM,60.8,60.8,100,29.93,2.5,West,10.4,-,N/A,Rain,Rain,280,2014-01-14 14:12:00
9:20 AM,60.8,60.8,100,29.93,3.0,West,15.0,-,N/A,Rain,Light Rain,270,2014-01-14 14:20:00
9:22 AM,60.8,60.8,100,29.94,4.0,West,11.5,-,N/A,Rain,Light Rain,280,2014-01-14 14:22:00
9:24 AM,60.8,60.8,100,29.94,5.0,West,12.7,-,N/A,Rain,Light Rain,280,2014-01-14 14:24:00
9:32 AM,60.8,60.8,100,29.94,10.0,WNW,15.0,20.7,N/A,,Overcast,290,2014-01-14 14:32:00
9:34 AM,60.8,60.8,100,29.94,10.0,WNW,13.8,20.7,N/A,,Overcast,300,2014-01-14 14:34:00
9:40 AM,59.0,59.0,100,29.94,10.0,WNW,11.5,20.7,N/A,,Mostly Cloudy,300,2014-01-14 14:40:00
9:44 AM,59.0,59.0,100,29.94,10.0,WNW,11.5,20.7,N/A,,Mostly Cloudy,300,2014-01-14 14:44:00
9:58 AM,59.9,59.7,99,29.96,10.0,WNW,9.2,-,0.05,,Scattered Clouds,300,2014-01-14 14:58:00
10:38 AM,60.8,59.0,94,29.97,10.0,NW,12.7,18.4,N/A,,Overcast,310,2014-01-14 15:38:00
10:40 AM,60.8,59.0,94,29.97,10.0,WNW,12.7,18.4,N/A,,Overcast,300,2014-01-14 15:40:00
10:52 AM,60.8,59.0,94,29.97,10.0,WNW,11.5,-,N/A,,Overcast,300,2014-01-14 15:52:00
10:56 AM,60.8,59.0,94,29.97,10.0,WNW,9.2,-,N/A,,Overcast,290,2014-01-14 15:56:00
10:58 AM,60.8,58.3,91,29.98,10.0,WNW,8.1,-,N/A,,Mostly Cloudy,300,2014-01-14 15:58:00
11:10 AM,62.6,59.0,88,29.97,10.0,WNW,12.7,-,N/A,,Mostly Cloudy,300,2014-01-14 16:10:00
11:12 AM,62.6,57.2,82,29.97,10.0,WNW,15.0,18.4,N/A,,Scattered Clouds,300,2014-01-14 16:12:00
11:26 AM,62.6,57.2,82,29.97,10.0,NW,10.4,-,N/A,,Mostly Cloudy,310,2014-01-14 16:26:00
11:40 AM,62.6,55.4,77,29.96,10.0,NW,11.5,-,N/A,,Mostly Cloudy,320,2014-01-14 16:40:00
11:58 AM,63.3,54.1,72,29.96,10.0,WNW,11.5,-,N/A,,Scattered Clouds,290,2014-01-14 16:58:00
12:58 PM,64.9,51.8,62,29.95,10.0,WNW,12.7,-,N/A,,Mostly Cloudy,300,2014-01-14 17:58:00
1:58 PM,65.7,46.6,50,29.95,10.0,NW,15.0,-,N/A,,Partly Cloudy,320,2014-01-14 18:58:00
2:58 PM,65.1,45.7,49,29.95,10.0,NW,9.2,-,N/A,,Clear,320,2014-01-14 19:58:00
3:58 PM,64.9,44.6,48,29.96,10.0,NW,11.5,-,N/A,,Clear,320,2014-01-14 20:58:00
4:58 PM,63.3,41.9,46,29.97,10.0,WNW,5.8,-,N/A,,Clear,300,2014-01-14 21:58:00
5:58 PM,57.9,40.6,53,29.98,10.0,WNW,5.8,-,N/A,,Clear,300,2014-01-14 22:58:00
6:58 PM,52.0,41.2,67,30.00,10.0,Calm,Calm,-,N/A,,Clear,0,2014-01-14 23:58:00
7:58 PM,48.7,41.7,77,30.02,10.0,Calm,Calm,-,N/A,,Clear,0,2014-01-15 00:58:00
8:58 PM,47.3,41.7,81,30.04,10.0,Calm,Calm,-,N/A,,Clear,0,2014-01-15 01:58:00
9:58 PM,45.9,41.9,86,30.05,10.0,Calm,Calm,-,N/A,,Clear,0,2014-01-15 02:58:00
10:58 PM,45.0,43.3,94,30.05,10.0,Calm,Calm,-,N/A,,Clear,0,2014-01-15 03:58:00
11:58 PM,44.4,41.2,88,30.04,10.0,WNW,3.5,-,N/A,,Clear,300,2014-01-15 04:58:00